Location: Cincinnati Observatory Center
(39.1389°N, 84.4225°W)
Time: 21:11:23
(UTC-04:00)

Hubble Space Telescope - Visible Passes

Search period start: 04 September 2015 00:00
Search period end: 14 September 2015 00:00
Orbit: 541 x 545 km, 28.5° (Epoch: 04 September)

Date Brightness Start Highest point End Pass type
(mag) Time Alt. Az. Time Alt. Az. Time Alt. Az.
04 Sep 3.2 05:54:03 10° S 05:55:09 11° SSE 05:56:19 10° SSE visible
05 Sep 3.0 05:44:51 11° S 05:46:04 13° SSE 05:47:59 10° SE visible
06 Sep 2.9 05:36:26 14° S 05:37:00 15° SSE 05:39:19 10° SE visible
07 Sep 2.8 05:28:01 16° S 05:28:01 16° S 05:30:31 10° SE visible
08 Sep 2.8 05:19:36 17° SSE 05:19:36 17° SSE 05:21:38 10° SE visible
09 Sep 3.0 05:11:13 16° SSE 05:11:13 16° SSE 05:12:41 10° SE visible
09 Sep 2.8 06:47:52 10° SW 06:50:28 16° S 06:53:03 10° SSE visible
10 Sep 3.2 05:02:52 13° SE 05:02:52 13° SE 05:03:40 10° SE visible
10 Sep 2.8 06:39:03 10° SW 06:41:24 15° SSW 06:43:42 10° SSE visible
11 Sep 3.5 04:54:35 10° SE 04:54:35 10° SE 04:54:36 10° SE visible
11 Sep 2.9 06:30:23 10° SW 06:32:19 13° SSW 06:34:12 10° SSE visible
12 Sep 3.0 06:22:02 10° SSW 06:23:14 11° SSW 06:24:22 10° S visible
